Hourly Data Report for June 14, 2020

All times are specified in Local Standard Time (LST). Add 1 hour to adjust for Daylight Saving Time where and when it is observed.

OTTAWA INTL A
ONTARIO
Current Station Operator: NAVCAN

45°19'00.000" N
75°40'00.000" W
114.90 m
6106001
71628
YOW

Download Data

Hourly Data (June 2020)
Hourly Data Report for June 14, 2020
TIME Temp Definition
°C
Dew Point Definition
°C
Rel Hum Definition
%
Wind Dir Definition
10's deg

Wind Spd Definition
km/h
Visibility Definition
km
Stn Press Definition
kPa
Hmdx Definition


Wind Chill Definition


Weather Definition


00:00 8.8 4.1 73 36 11 24.1 101.56     LegendNANA
01:00 8.8 3.1 67 2 6 24.1 101.56     Mainly Clear
02:00 8.3 3.2 70 35 12 24.1 101.58     LegendNANA
03:00 7.9 3.6 74 35 13 24.1 101.58     LegendNANA
04:00 8.0 3.6 74 36 12 24.1 101.63     Mainly Clear
05:00 8.4 3.4 71 36 14 24.1 101.69     LegendNANA
06:00 9.5 3.7 67 1 10 24.1 101.77     LegendNANA
07:00 12.3 5.0 61 2 8 24.1 101.83     Clear
08:00 14.7 5.6 54 6 10 24.1 101.88     LegendNANA
09:00 16.6 4.9 46 6 13 24.1 101.88     LegendNANA
10:00 16.6 1.8 37 7 10 24.1 101.87     Mostly Cloudy
11:00 17.7 4.4 41 3 10 24.1 101.85     LegendNANA
12:00 18.7 4.7 39 3 17 24.1 101.78     LegendNANA
13:00 18.6 3.4 36 5 13 24.1 101.71     Clear
14:00 20.3 3.5 33 2 10 24.1 101.69     LegendNANA
15:00 20.2 4.2 34 9 10 24.1 101.64     LegendNANA
16:00 20.4 2.2 30 8 11 24.1 101.62     Mainly Clear
17:00 20.2 1.6 29 7 13 24.1 101.61     LegendNANA
18:00 18.2 4.0 39 12 8 24.1 101.62     LegendNANA
19:00 17.1 5.0 44 13 10 24.1 101.62     Mainly Clear
20:00 14.2 4.2 51 15 10 24.1 101.65     LegendNANA
21:00 12.9 3.8 54 14 5 24.1 101.69     LegendNANA
22:00 11.8 4.2 59 21 4 24.1 101.71     Clear
23:00 12.1 3.0 53 36 3 24.1 101.71     LegendNANA

Notes on Data Quality.

Legend

  • E = Estimated
  • M = Missing
  • NA = Not Available*
  • [empty] = Indicates an unobserved value
Date modified: